Regional Weather Roundup
Issued by NWS Newport/Morehead, NC

Current Version | Previous Version | Graphics & Text | Print | Product List | Glossary Off
Versions: 1 2 3 4 5 6 7 8 9 10 11 12 13 14 15 16 17 18 19 20 21 22 23 24 25 26 27 28 29 30 31 32 33 34 35 36 37 38 39 40 41 42 43 44 45 46 47 48 49 50

000
ASUS42 KMHX 291725
RWRMHX
WEATHER ROUNDUP FOR EASTERN NORTH CAROLINA
NATIONAL WEATHER SERVICE NEWPORT/MOREHEAD CITY NC
100 PM EDT SAT AUG 29 2015

NOTE: "FAIR" INDICATES FEW OR NO CLOUDS BELOW 12,000 FEET
WITH NO SIGNIFICANT WEATHER AND/OR OBSTRUCTIONS TO VISIBILITY

NCZ015>017-031-032-045>047-102-103-291800-
NORTH COAST

CITY           SKY/WX    TMP DP  RH WIND       PRES   REMARKS
EDENTON        MOSUNNY   82  59  45 E6        30.19F
ELIZABETH CITY SUNNY     83  61  47 NE14      30.19F
KITTY HAWK     PTSUNNY   82  66  58 NE8       30.18S
MANTEO         CLOUDY    79  68  68 NE13G18   30.19F

$$

NCZ045>047-081-094-103-104-291800-
CENTRAL COAST

CITY           SKY/WX    TMP DP  RH WIND       PRES   REMARKS
FRISCO         MOSUNNY   82  71  69 NE12G23   30.15F
SWANQUARTER    NOT AVBL

$$

NCZ095-097-098-100-101-291800-
SOUTHERN COAST

CITY           SKY/WX    TMP DP  RH WIND       PRES   REMARKS
BEAUFORT       PTSUNNY   82  72  71 NE12      30.16S
CEDAR ISLAND   NOT AVBL
JACKSONVILLE   MOSUNNY   84  65  52 NE12      30.17F
PINEY ISLAND   CLOUDY   N/A N/A N/A N13G20    30.17S
WILMINGTON     PTSUNNY   84  67  56 N12       30.17F


$$

NCZ011>013-027>030-043-044-078>080-089-090>093-098-291800-
COASTAL PLAIN

CITY           SKY/WX    TMP DP  RH WIND       PRES   REMARKS
AHOSKIE        MOSUNNY   81  60  49 N8        30.20F
CLINTON        CLOUDY    82  60  47 NE8       30.20F
ELIZABETHTOWN  CLOUDY    80  61  52 NE3       30.20F
GOLDSBORO      PTSUNNY   84  60  44 N10G17    30.19F
GREENVILLE     PTSUNNY   84  61  45 E10       30.21S
HAVELOCK       PTSUNNY   86  69  56 NE13      30.18S
KENANSVILLE    PTSUNNY   83  58  42 N7        30.20F
KINSTON        PTSUNNY   84  57  39 N10       30.20F
NEW BERN       PTSUNNY   83  66  56 NE12      30.19F
RICHLANDS      PTSUNNY   82  63  51 N8        30.18F
ROCKY MOUNT    PTSUNNY   85  57  38 NE9G16    30.21F
WASHINGTON     PTSUNNY   83  62  49 NE12      30.19F
WHITEVILLE     CLOUDY    79  63  58 N5        30.19F

$$

AMZ130-135-150-152-154-156-158-170-250-252-270-ANZ085-086-088-633-658-670-291800-
MARINE OBSERVATIONS

STATION/POSITION TIME  TEMP    WIND        PRES    WAVE   SWELL
                       AIR SEA DIR/SP/G            HT/PER HT/PER
                 (UTC) (F)     (DEG/KT/KT) (MB)    (FT/S) (FT/S)
CHESAPEAKE LIGHT 1700   76      50/ 11/ 11 1023.3
64 E VA BEACH    1650   77 78   50/ 14/ 17 1022.1    4/11   3/11
DUCK             NOT AVBL
2 E DUCK         1711      78                N/A     4/11   2/11
OREGON INLET     NOT AVBL
13E OREGON INLT  1700      78                N/A     5/12   2/12
HATTERAS CG      NOT AVBL
DIAMOND BUOY     1650   79 83   40/ 16/ 19 1020.5    5/11   3/11
CAPE LOOKOUT     1700   80      30/ 17/ 19 1020.8
BEAUFORT LAB     NOT AVBL
30 SE NEW RVR IN 1608   80 81   50/ 17/ 21 1021.4
30 SE NEW RVR IN 1625      81                N/A     5/11   2/11
27 SE WRIGHTSVLE 1700   77 82   40/ 14/ 17   N/A
5 SE WRIGHTSVLE  1608   79 82   40/ 12/ 16 1021.8
225 S CAPE HAT   1650   84 84  220/ 10/ 12 1021.4    5/11   5/11
41 SE CHARLESTON 1650   80 85   30/ 16/ 17 1020.6    5/ 6   3/ 8

$$



USA.gov is the U.S. government's official web portal to all federal, state and local government web resources and services.